Starlink 5670

operational
NORAD ID: 55341 Int'l Des: 2023-013 Owner: SPXS Country: US Constellation: starlink
LEOCIRCULAR

关于 Starlink 5670

正在加载描述...

实时位置

正在加载3D地球...

即将过境

高度历史

Altitude vs Time

uPlot chart will show altitude changes over time

两行轨道根数

1 55341U 23013L 26033.63447153 -.00000119 00000-0 62749-5 0 9999
2 55341 43.0042 131.0342 0001375 272.8174 87.2511 15.02533339166432
Epoch: Feb 2, 2026 • Age: 12 hours

当前状态

高度 564.5 km
速度 7.58 km/s
星下点 -24.35°S, 153.46°E
发射日期 Jan 26, 2023
运行时间 3 years
类型 internet

技术详情

分类 Payload
质量 305.00 kg
干质量 290.00 kg
总质量 305.00 kg
长度 0.20 m
直径 2.80 m
跨度 9.00 m
形状 Box + pan
制造商 SPXS
平台类型 Starlink
阶段状态 In Orbit
所有者/国家 SPXS/US

大型星座

Loading constellations...